COSMOS 2219

Satellite information

Favourite Embed

Satellite Type and Status

PAYLOADIN ORBIT

Key statistics

Satellite COSMOS 2219 at a glance.

Uptime

12080

Days in orbit

Revolutions

≈ 14.1

Per day

Orbit

LEO

Low Earth Orbit

Inclination

71.1

Latest

Satellite identification and parameters

Extended collection of information and parameters for COSMOS 2219.

Object identification

Identified? True

Debris? False

Object name: COSMOS 2219

International designator: 1992-076A

Object number (NORAD): 22219

Object ID (CCSDS): 22219

Country: COMMONWEALTH OF INDEPENDENT STATES (CIS)

Current information (Y/N): Y

RCS size: LARGE

Orbital parameters

Period: 101.834 minutes

Inclination: 71.0582 deg

SMA: 7223.64 km

Apoapsis: 859.28 km

Periapsis: 831.731 km

RAAN: 201.1955 deg

Eccentricy: 0.00190687

Argument of periapsis: 327.7715 deg

Mean anomaly: 32.224 deg

Mean motion: 14.14062535 rev/day

Mean motion (dot): -0.00000034 rev/day2

B* drag term: 0.000006904701 1/REarth

Two-line elements (TLE)

Creation date: Dec. 12, 2025, 10:14 a.m.

Reference frame: TEME

Reference center: EARTH

Epoch: Dec. 12, 2025, 2:06 a.m. UTC

TLE line 0: 0 COSMOS 2219

TLE line 1: 1 22219U 92076A 25346.08796574 -.00000034 00000-0 69047-5 0 9995

TLE line 2: 2 22219 71.0582 201.1955 0019069 327.7715 32.2240 14.14062535705995

Live tracking on map

Real-time ground track for satellite COSMOS 2219.

In-orbit conjunctions

A list of the most updated potential collisions computed for object COSMOS 2219.

Target Orbit TCA Probability of collision Miss distance Type
DODECAPOLE 2 SSO 2025-12-13 04:29:41 0.0006141161 833.0 (m) PAYLOAD
CZ-6A DEB LEO 2025-09-06 21:31:08 0.000103546 757.0 (m) DEBRIS
CZ-6A DEB SSO 2025-08-05 14:33:00 0.001740975 175.0 (m) DEBRIS
DMSP 5D-2 F11 DEB SSO 2025-04-12 04:09:25 0.000627183 297.0 (m) DEBRIS
DMSP 5D-2 F13 DEB SSO 2024-12-15 05:21:13 0.0002727817 364.0 (m) DEBRIS

Associated space launch

Second generation ELING satellite

COSMOS 2219 was lifted into orbit during the mission ‘Zenit-2 | Tselina-2 11’, on board a Zenit-2 space rocket.

The launch took place on Nov. 17, 1992, 7:47 a.m. from 45/1.

For more information about the launch, click the button.

Launch to space Zenit-2 | Tselina-2 11
Zenit-2 | Tselina-2 11

Agency: N/A

Status: Launch Successful

Launch date: Nov. 17, 1992, 7:47 a.m. UTC

Rocket: Zenit-2

Launch pad: 45/1

Location: Baikonur Cosmodrome, Republic of Kazakhstan

...

Latest news about this satellite

There are no fresh news available about this satellite. Check back as we update our databases every day.


Newsletter sign-up

Weekly statistics, charts and insights to help you stay on top of the space industry.